KD9BEW Weather Reports


time (UTC)temp
C
wind
direction
speed
KPH
gust
KPH
rain 1hr
cm
rain 24hr
cm
rain mn
cm
humidity
%
barometer
mb
20260906173115 29 254 3.2 9.7 0.00 0.03 0.03 58 1020.0
20260906171608 28 0 0.0 8.0 0.00 0.03 0.03 60 1020.3
20260906170109 28 0 1.6 12.9 0.00 0.03 0.03 61 1020.3
20260906164602 27 184 1.6 9.7 0.00 0.03 0.03 62 1020.3
20260906163109 27 209 3.2 9.7 0.00 0.03 0.03 63 1020.3
20260906161602 26 159 3.2 11.3 0.00 0.03 0.03 63 1020.3
20260906160110 27 192 1.6 8.0 0.00 0.03 0.03 67 1020.4
20260906154605 26 234 3.2 8.0 0.00 0.03 0.03 70 1020.4
20260906153104 25 213 4.8 12.9 0.00 0.03 0.03 71 1020.5
20260906151605 25 192 0.0 11.3 0.00 0.03 0.03 74 1020.5
20260906144604 22 237 1.6 6.4 0.00 0.03 0.03 80 1020.9
20260906143113 22 166 0.0 6.4 0.00 0.03 0.03 83 1020.7
20260906141602 21 0 1.6 9.7 0.00 0.03 0.03 86 1020.7
20260906140107 20 0 0.0 0.0 0.00 0.03 0.03 90 1020.6
20260906134602 19 0 0.0 6.4 0.00 0.03 0.03 94 1020.8
20260906133106 17 0 0.0 6.4 0.00 0.03 0.03 94 1020.6
20260906131601 16 40 0.0 3.2 0.00 0.03 0.03 94 1020.8
20260906130105 16 128 0.0 3.2 0.03 0.03 0.03 94 1020.8
20260906124603 15 0 0.0 0.0 0.03 0.05 0.03 94 1020.7
20260906123108 14 0 0.0 0.0 0.03 0.05 0.03 93 1020.7
20260906121606 13 0 0.0 0.0 0.03 0.05 0.03 93 1020.7
20260906120118 13 0 0.0 0.0 0.00 0.03 0.00 93 1020.6
20260906114616 13 0 0.0 0.0 0.00 0.05 0.00 93 1020.2
20260906113108 13 0 0.0 0.0 0.00 0.05 0.00 93 1020.1
20260906111618 14 0 0.0 0.0 0.00 0.05 0.00 93 1019.8
20260906110103 14 0 0.0 0.0 0.00 0.05 0.00 93 1019.4
20260906104607 14 0 0.0 0.0 0.00 0.08 0.00 93 1019.4
20260906103105 14 0 0.0 0.0 0.00 0.08 0.00 93 1019.6
20260906101604 14 0 0.0 0.0 0.00 0.08 0.00 93 1019.6
20260906100108 14 0 0.0 0.0 0.00 0.08 0.00 93 1019.5
20260906094559 15 0 0.0 0.0 0.00 0.10 0.00 92 1019.5
20260906093059 15 0 0.0 0.0 0.00 0.10 0.00 92 1019.5
20260906091615 15 0 0.0 0.0 0.00 0.10 0.00 92 1019.7
20260906090103 15 0 0.0 0.0 0.00 0.10 0.00 92 1019.8
20260906084605 15 0 0.0 0.0 0.00 0.10 0.00 92 1019.8
20260906083104 15 0 0.0 0.0 0.00 0.10 0.00 92 1019.8
20260906081603 16 0 0.0 1.6 0.00 0.10 0.00 92 1019.8
20260906080110 16 0 0.0 1.6 0.00 0.10 0.00 92 1019.5
20260906074602 16 0 0.0 0.0 0.00 0.13 0.00 92 1019.9
20260906073057 16 0 0.0 0.0 0.00 0.13 0.00 92 1019.8
20260906071608 16 0 0.0 0.0 0.00 0.13 0.00 92 1019.9
20260906070104 16 0 0.0 1.6 0.00 0.13 0.00 92 1019.6
20260906064559 16 0 0.0 0.0 0.00 0.13 0.00 92 1020.0
20260906063105 16 0 0.0 0.0 0.00 0.13 0.00 92 1019.9
20260906061606 16 0 0.0 0.0 0.00 0.13 0.00 92 1019.9
20260906060104 16 0 0.0 0.0 0.00 0.13 0.00 92 1020.0
20260906054602 16 0 0.0 0.0 0.00 0.15 0.00 92 1019.9
20260906053105 16 0 0.0 0.0 0.00 0.15 0.00 91 1019.8
20260906051609 16 0 0.0 0.0 0.00 0.15 0.00 91 1019.7
20260906050107 16 0 0.0 0.0 0.00 0.15 0.00 91 1019.5
20260906044606 17 0 0.0 0.0 0.00 0.15 0.15 91 1019.5
20260906043103 17 0 0.0 0.0 0.00 0.15 0.15 91 1019.5
20260906041614 17 0 0.0 0.0 0.00 0.15 0.15 91 1019.6
20260906040115 17 0 0.0 0.0 0.00 0.15 0.15 91 1019.7
20260906034558 17 0 0.0 0.0 0.00 0.15 0.15 91 1019.4
20260906033107 17 0 0.0 0.0 0.00 0.15 0.15 91 1019.2
20260906031600 17 0 0.0 0.0 0.00 0.15 0.15 90 1018.8
20260906030110 17 0 0.0 0.0 0.00 0.15 0.15 90 1018.9
20260906024624 17 0 0.0 0.0 0.00 0.18 0.15 90 1018.8
20260906023104 17 0 0.0 0.0 0.00 0.18 0.15 89 1018.6
20260906021609 17 0 0.0 0.0 0.00 0.18 0.15 89 1018.6
20260906020105 17 0 0.0 1.6 0.00 0.18 0.15 89 1018.4
20260906014612 17 0 0.0 0.0 0.00 0.18 0.15 88 1018.4
20260906013104 17 0 0.0 1.6 0.00 0.18 0.15 88 1018.3
20260906011604 17 0 0.0 0.0 0.00 0.18 0.15 88 1018.1
20260906010119 18 0 0.0 1.6 0.00 0.18 0.15 87 1018.0
20260906004605 18 0 0.0 0.0 0.00 0.18 0.15 86 1018.3
20260906003120 19 0 0.0 3.2 0.00 0.18 0.15 84 1018.2
20260906001608 20 0 0.0 1.6 0.00 0.18 0.15 83 1018.4
20260906000109 20 0 0.0 1.6 0.00 0.18 0.15 80 1018.4
20260905234609 21 0 0.0 4.8 0.00 0.18 0.15 79 1018.4
20260905233104 21 0 0.0 3.2 0.00 0.18 0.15 79 1018.4
20260905231608 22 312 0.0 4.8 0.00 0.18 0.15 80 1018.3
20260905230111 22 53 0.0 3.2 0.00 0.18 0.15 79 1018.2
20260905224605 22 0 0.0 3.2 0.00 0.18 0.15 79 1018.4
20260905223105 23 0 0.0 6.4 0.00 0.18 0.15 81 1018.3
20260905221603 23 53 1.6 6.4 0.00 0.18 0.15 80 1018.4
20260905220106 23 40 1.6 8.0 0.00 0.18 0.15 80 1018.4
20260905214601 23 62 0.0 8.0 0.00 0.18 0.15 80 1018.4
20260905213106 23 0 1.6 6.4 0.00 0.18 0.15 80 1018.4
20260905211606 24 62 1.6 6.4 0.00 0.18 0.15 78 1018.5
20260905210108 23 42 1.6 8.0 0.00 0.18 0.15 80 1018.5
20260905204613 23 0 0.0 3.2 0.00 0.18 0.15 82 1018.7
20260905203102 23 0 0.0 3.2 0.00 0.18 0.15 81 1018.9
20260905201604 23 0 1.6 6.4 0.00 0.18 0.15 80 1019.2
20260905200108 23 333 1.6 6.4 0.00 0.18 0.15 80 1019.1
20260905194601 23 0 0.0 6.4 0.00 0.18 0.15 82 1019.2
20260905193110 22 0 1.6 4.8 0.00 0.18 0.15 83 1019.1
20260905191611 22 26 0.0 3.2 0.00 0.18 0.15 83 1018.8
20260905184611 21 0 0.0 1.6 0.00 0.18 0.15 85 1019.2
20260905183106 21 0 0.0 1.6 0.00 0.18 0.15 86 1019.3
20260905181605 21 348 0.0 1.6 0.00 0.18 0.15 86 1019.2
20260905180107 21 0 0.0 4.8 0.00 0.18 0.15 86 1019.4
20260905174605 21 0 0.0 3.2 0.00 0.18 0.15 86 1019.3